This is the latest recevied weather packets stored in our database for station/object WC4PEM-14. If no packets are shown the sender has not sent any weather packets the latest 10 day(s).
| Time | Temp. | Humidity | Pressure | Rain* | Wind** | Luminosity | Snow |
|---|---|---|---|---|---|---|---|
| 1777579208 | 32.22° C | 42% | 1009.1 hPa | 0 mm | - | - | - |
| 1777579100 | 32.22° C | 42% | 1009.1 hPa | 0 mm | - | - | - |
| 1777578868 | 32.78° C | 41% | 1009.2 hPa | 0 mm | - | - | - |
| 1777578801 | 32.78° C | 41% | 1009.2 hPa | 0 mm | - | - | - |
| 1777578585 | 32.78° C | 43% | 1009.2 hPa | 0 mm | - | - | - |
| 1777578501 | 32.78° C | 43% | 1009.2 hPa | 0 mm | - | - | - |
| 1777578251 | 32.78° C | 40% | 1009.2 hPa | 0 mm | - | - | - |
| 1777578200 | 32.78° C | 40% | 1009.2 hPa | 0 mm | - | - | - |
| 1777578022 | 32.78° C | 41% | 1009.2 hPa | 0 mm | - | - | - |
| 1777577901 | 32.78° C | 41% | 1009.2 hPa | 0 mm | - | - | - |
| 1777577698 | 32.22° C | 40% | 1009.2 hPa | 0 mm | - | - | - |
| 1777577601 | 32.22° C | 40% | 1009.2 hPa | 0 mm | - | - | - |
| 1777577385 | 32.22° C | 42% | 1009.3 hPa | 0 mm | - | - | - |
| 1777577301 | 32.22° C | 42% | 1009.3 hPa | 0 mm | - | - | - |
| 1777577060 | 32.22° C | 42% | 1009.5 hPa | 0 mm | - | - | - |
| 1777577001 | 32.22° C | 42% | 1009.5 hPa | 0 mm | - | - | - |
| 1777576822 | 32.22° C | 43% | 1009.4 hPa | 0 mm | - | - | - |
| 1777576701 | 32.22° C | 43% | 1009.4 hPa | 0 mm | - | - | - |
| 1777576475 | 32.22° C | 43% | 1009.4 hPa | 0 mm | - | - | - |
| 1777576401 | 32.22° C | 43% | 1009.4 hPa | 0 mm | - | - | - |
| 1777576101 | 32.22° C | 43% | 1009.6 hPa | 0 mm | - | - | - |
| 1777575972 | 32.22° C | 42% | 1009.6 hPa | 0 mm | - | - | - |
| 1777575801 | 32.22° C | 42% | 1009.6 hPa | 0 mm | - | - | - |
| 1777575501 | 32.78° C | 40% | 1009.6 hPa | 0 mm | - | - | - |
| 1777575254 | 32.22° C | 42% | 1009.8 hPa | 0 mm | - | - | - |
* Rain latest hour (hover to see other rain measurements)
** Current wind speed in m/s (hover to see current wind gust speed)